Погода в Куруше

Россия / Республика Дагестан     43°23′05″N   46°45′22″E
темп.,
°C
ветер,
м/с
пор.,
м/с
влажн.,
%
обл.,
%
осадки,
мм/ч
давл.,
гПа
погр.,
м
25 июня, сб
сб2500:00+19в4885100 0.1 1008172
03:00+18вюв229175 0.1 100919
06:00+21юв247696 0.0 1009283
09:00+27юв344892 0.0 10091402
12:00+29в6537100 0.0 10081787
15:00+30в6535100 0.0 10071675
18:00+26вюв5545100 0.3 1008732
21:00+21в2272100 0.9 100822
26 июня, вс
вс2600:00+20з3379100 0.0 100844
03:00+19з4685100 0.1 1008141
06:00+20зсз4681100 0.0 1008200
09:00+26зсз4349100 0.0 1008881
12:00+29зюз233799 0.0 10061183
15:00+33св3327100 0.0 10052626
18:00+31ссв3331100 0.0 10051145
21:00+22з71170100 0.4 1008208
27 июня, пн
пн2700:00+20з51080100 0.2 1008269
03:00+20з6107781 0.2 1009279
06:00+22з8116746 0.0 1010435
09:00+25зсз775651 0.0 1010772
12:00+30сз444697 0.0 10091732
15:00+32св653618 0.0 10091790
18:00+29св654294 0.0 1010920
21:00+21с366512 0.0 101194
28 июня, вт
вт2800:00+20сз3469100 0.0 101154
03:00+19з3471100 0.0 101053
06:00+22зсз465785 0.0 1010228
09:00+30ссз35310 0.0 10091672
12:00+34ссв65220 0.0 10082234
15:00+33ссв76250 0.0 10082137
18:00+30ссв66285 0.0 10091425
21:00+22св1244100 0.0 101111
29 июня, ср
ср2900:00+21з2250100 0.0 101111
03:00+20зсз33535 0.0 101125
06:00+23зсз34450 0.0 1012182
09:00+30сз33350 0.0 10111483
12:00+33ссв6429100 0.0 10102755
15:00+29в7645100 0.0 10111535
18:00+25в7759100 0.0 10121033
21:00+22в5872100 0.0 1014569